Retour au catalogue

CHUANG XIN 20B

CX-20B

ActifCommunicationsLEO
NORAD 58426·PAYLOAD·🇨🇳 China

Lancé Nov 23, 2023 depuis Xichang Satellite Launch Center

Loading…

Prochains Passages (prochaines 24 heures)

TLE

FraisSource: Space-Track

Époque: Sep 14, 2026, 20:04 UTC

1 58426U 23181B   26257.83643274 -.00000085  00000-0  77046-4 0  9991
2 58426  49.9608 358.0338 0011900 183.2534 176.8268 13.41498621137772

Suivez CHUANG XIN 20B en temps réel avec AllMySat

Download on the App Store